Year,Month,Day,Hour,Minute,Value (Times are PST for temperature in C)
2023,03,27,00,01,4.20
2023,03,27,00,06,4.20
2023,03,27,00,11,4.20
2023,03,27,00,16,4.10
2023,03,27,00,21,4.00
2023,03,27,00,26,4.00
2023,03,27,00,31,3.90
2023,03,27,00,36,3.80
2023,03,27,00,41,3.80
2023,03,27,00,46,3.70
2023,03,27,00,51,3.70
2023,03,27,00,56,3.70
2023,03,27,01,01,3.70
2023,03,27,01,06,3.80
2023,03,27,01,11,3.90
2023,03,27,01,16,3.90
2023,03,27,01,21,3.90
2023,03,27,01,26,3.90
2023,03,27,01,31,3.90
2023,03,27,01,36,3.90
2023,03,27,01,51,4.00
2023,03,27,01,56,4.00
2023,03,27,02,01,4.00
2023,03,27,02,06,4.00
2023,03,27,02,11,4.00
2023,03,27,02,16,4.10
2023,03,27,02,26,4.00
2023,03,27,02,31,4.00
2023,03,27,02,36,3.90
2023,03,27,02,41,3.90
2023,03,27,02,46,3.80
2023,03,27,02,51,3.60
2023,03,27,02,56,3.50
2023,03,27,03,01,3.50
2023,03,27,03,06,3.60
2023,03,27,03,16,3.60
2023,03,27,03,21,3.60
2023,03,27,03,26,3.60
2023,03,27,03,31,3.60
2023,03,27,03,36,3.60
2023,03,27,03,41,3.70
2023,03,27,03,51,3.70
2023,03,27,04,06,3.80
2023,03,27,04,11,3.80
2023,03,27,04,16,3.70
2023,03,27,04,21,3.60
2023,03,27,04,26,3.50
2023,03,27,04,31,3.40
2023,03,27,04,36,3.40
2023,03,27,04,41,3.30
2023,03,27,04,46,3.30
2023,03,27,04,51,3.30
2023,03,27,04,56,3.30
2023,03,27,05,01,3.30
2023,03,27,05,06,3.30
2023,03,27,05,11,3.30
2023,03,27,05,16,3.40
2023,03,27,05,21,3.40
2023,03,27,05,26,3.50
2023,03,27,05,31,3.50
2023,03,27,05,36,3.50
2023,03,27,05,41,3.50
2023,03,27,05,46,3.60
2023,03,27,05,51,3.60
2023,03,27,05,56,3.60
2023,03,27,06,01,3.60
2023,03,27,06,06,3.70
2023,03,27,06,11,3.70
2023,03,27,06,21,3.80
2023,03,27,06,26,3.80
2023,03,27,06,31,3.90
2023,03,27,06,36,3.90
2023,03,27,06,41,3.90
2023,03,27,06,46,3.90
2023,03,27,06,51,3.90
2023,03,27,06,56,4.00
2023,03,27,07,01,3.90
2023,03,27,07,06,3.90
2023,03,27,07,11,4.00
2023,03,27,07,16,4.00
2023,03,27,07,21,4.00
2023,03,27,07,26,4.10
2023,03,27,07,31,4.10
2023,03,27,07,36,4.10
2023,03,27,07,41,4.10
2023,03,27,07,46,4.10
2023,03,27,07,51,4.20
2023,03,27,07,56,4.20
2023,03,27,08,01,4.30
2023,03,27,08,06,4.40
2023,03,27,08,11,4.40
2023,03,27,08,16,4.40
2023,03,27,08,21,4.50
2023,03,27,08,26,4.60
2023,03,27,08,31,4.80
2023,03,27,08,36,4.80
2023,03,27,08,41,5.00
2023,03,27,08,46,5.20
2023,03,27,08,51,5.60
2023,03,27,08,56,5.60
2023,03,27,09,06,5.80
2023,03,27,09,11,5.90
2023,03,27,09,21,6.00
2023,03,27,09,26,6.70
2023,03,27,09,31,7.00
2023,03,27,09,36,6.90
2023,03,27,09,46,7.20
2023,03,27,09,51,7.30
2023,03,27,09,56,7.20
2023,03,27,10,01,7.10
2023,03,27,10,06,7.00
2023,03,27,10,11,7.20
2023,03,27,10,16,7.10
2023,03,27,10,26,7.50
2023,03,27,10,31,7.40
2023,03,27,10,36,7.60
2023,03,27,10,41,7.60
2023,03,27,10,46,7.60
2023,03,27,10,51,7.70
2023,03,27,10,56,7.60
2023,03,27,11,01,7.80
2023,03,27,11,06,7.90
2023,03,27,11,11,8.50
2023,03,27,11,16,8.90
2023,03,27,11,21,8.80
2023,03,27,11,26,8.50
2023,03,27,11,31,8.70
2023,03,27,11,36,8.30
2023,03,27,11,41,9.00
2023,03,27,11,46,9.20
2023,03,27,11,51,9.00
2023,03,27,12,01,8.70
2023,03,27,12,06,8.50
2023,03,27,12,11,8.60
2023,03,27,12,16,8.70
2023,03,27,12,21,8.70
2023,03,27,12,26,9.00
2023,03,27,12,31,8.60
2023,03,27,12,36,8.50
2023,03,27,12,41,8.50
2023,03,27,12,46,8.50
2023,03,27,12,51,8.50
2023,03,27,12,56,8.50
2023,03,27,13,01,8.50
2023,03,27,13,06,8.60
2023,03,27,13,11,8.70
2023,03,27,13,16,8.80
2023,03,27,13,21,9.10
2023,03,27,13,26,9.60
2023,03,27,13,31,10.00
2023,03,27,13,36,10.30
2023,03,27,13,41,10.40
2023,03,27,13,51,10.50
2023,03,27,13,56,10.20
2023,03,27,14,01,10.10
2023,03,27,14,06,10.20
2023,03,27,14,11,10.20
2023,03,27,14,16,10.10
2023,03,27,14,21,10.00
2023,03,27,14,26,10.20
2023,03,27,14,31,10.20
2023,03,27,14,36,10.20
2023,03,27,14,41,10.00
2023,03,27,14,46,10.00
2023,03,27,14,51,10.10
2023,03,27,15,01,10.20
2023,03,27,15,06,10.00
2023,03,27,15,11,10.30
2023,03,27,15,21,10.80
2023,03,27,15,26,11.20
2023,03,27,15,32,11.40
2023,03,27,15,36,11.50
2023,03,27,15,41,11.10
2023,03,27,15,46,10.90
2023,03,27,15,51,10.70
2023,03,27,15,56,10.60
2023,03,27,16,01,10.80
2023,03,27,16,06,10.60
2023,03,27,16,11,10.50
2023,03,27,16,16,10.30
2023,03,27,16,31,10.30
2023,03,27,16,36,10.40
2023,03,27,16,41,10.60
2023,03,27,16,46,10.50
2023,03,27,16,51,10.30
2023,03,27,16,56,10.30
2023,03,27,17,01,10.30
2023,03,27,17,06,10.40
2023,03,27,17,11,10.40
2023,03,27,17,17,10.50
2023,03,27,17,21,10.40
2023,03,27,17,26,10.20
2023,03,27,17,31,10.10
2023,03,27,17,36,10.00
2023,03,27,17,41,9.70
2023,03,27,17,46,9.60
2023,03,27,17,51,9.50
2023,03,27,17,56,9.50
2023,03,27,18,01,9.30
2023,03,27,18,06,9.60
2023,03,27,18,11,9.70
2023,03,27,18,16,9.70
2023,03,27,18,21,9.50
2023,03,27,18,26,9.30
2023,03,27,18,31,9.10
2023,03,27,18,36,8.90
2023,03,27,18,41,8.70
2023,03,27,18,46,8.30
2023,03,27,18,51,7.90
2023,03,27,18,56,7.80
2023,03,27,19,01,7.60
2023,03,27,19,06,7.50
2023,03,27,19,16,7.20
2023,03,27,19,21,7.00
2023,03,27,19,26,6.80
2023,03,27,19,36,6.70
2023,03,27,19,41,6.70
2023,03,27,19,46,6.70
2023,03,27,19,51,6.70
2023,03,27,19,56,6.50
2023,03,27,20,01,6.50
2023,03,27,20,06,6.80
2023,03,27,20,11,6.70
2023,03,27,20,16,6.50
2023,03,27,20,21,6.40
2023,03,27,20,26,6.30
2023,03,27,20,31,6.30
2023,03,27,20,36,6.20
2023,03,27,20,41,6.00
2023,03,27,20,46,6.20
2023,03,27,20,51,6.20
2023,03,27,20,56,6.10
2023,03,27,21,01,6.10
2023,03,27,21,06,5.90
2023,03,27,21,11,5.80
2023,03,27,21,16,5.70
2023,03,27,21,21,5.50
2023,03,27,21,31,5.40
2023,03,27,21,36,5.40
2023,03,27,21,41,5.30
2023,03,27,21,46,5.20
2023,03,27,21,51,5.10
2023,03,27,21,56,4.90
2023,03,27,22,01,4.90
2023,03,27,22,06,4.90
2023,03,27,22,11,4.80
2023,03,27,22,16,4.80
2023,03,27,22,21,4.70
2023,03,27,22,26,4.80
2023,03,27,22,31,4.70
2023,03,27,22,36,4.60
2023,03,27,22,41,4.50
2023,03,27,22,46,4.40
2023,03,27,22,51,4.40
2023,03,27,22,56,4.40
2023,03,27,23,01,4.40
2023,03,27,23,06,4.40
2023,03,27,23,11,4.50
2023,03,27,23,16,4.40
2023,03,27,23,21,4.40
2023,03,27,23,26,4.30
2023,03,27,23,31,4.40
2023,03,27,23,36,4.30
2023,03,27,23,41,4.30
2023,03,27,23,46,4.20
2023,03,27,23,51,4.10
2023,03,27,23,56,4.20
